Weather History for PAGK - September, 2013

Change the Weather History Date:

Thursday, September 26, 2013

  Actual Average Record
Temperature  
Mean Temperature 48 °F -  
Max Temperature 55 °F 48 °F - (-1)
Min Temperature 42 °F 28 °F - (-1)
Degree Days  
Heating Degree Days 16    
Moisture  
Dew Point 36 °F    
Average Humidity 65    
Maximum Humidity 92    
Minimum Humidity 33    
Precipitation  
Precipitation 0.00 in - - ()
Sea Level Pressure  
Sea Level Pressure 29.55 in    
Wind  
Wind Speed 10 mph (SSE)    
Max Wind Speed 21 mph    
Max Gust Speed 29 mph    
Visibility 10 miles    
Events Rain    
Averages and records for this station are not official NWS values.
T = Trace of Precipitation, MM = Missing Value Source: NWS Daily Summary

Daily Weather History Graph

Daily Weather History Graph

Search for Another Location

Airport or City:

Trip Planner

Search our weather history database for the weather conditions in past years. The results will help you decide how hot, cold, wet, or windy it might be!

Date:

Astronomy

Sep. 26, 2013 Rise Set
Actual Time 7:37 AM AKDT 7:27 PM AKDT
Civil Twilight 6:52 AM AKDT 8:11 PM AKDT
Nautical Twilight 5:59 AM AKDT 9:04 PM AKDT
Astronomical Twilight 5:01 AM AKDT 10:01 PM AKDT
Moon 11:00 PM AKDT (9/26) 4:11 PM AKDT (9/26)
Length of Visible Light 13h 19m
Length of Day
11h 50m
Waning Gibbous, 53% of the Moon is Illuminated
Sep 26
Waning Gibbous
Sep 26
Last Quarter
Oct 4
New
Oct 11
First Quarter
Oct 18
Full

Hourly Weather History & Observations

Time (AKDT) Temp. Windchill Dew Point Humidity Pressure Visibility Wind Dir Wind Speed Gust Speed Precip Events Conditions
12:53 AM 46.0 °F 41.0 °F 36.0 °F 68% 29.61 in 10.0 mi South 10.4 mph - N/A   Scattered Clouds
1:53 AM 46.0 °F 41.0 °F 36.0 °F 68% 29.61 in 10.0 mi South 10.4 mph - N/A   Overcast
2:53 AM 45.0 °F 42.6 °F 36.0 °F 71% 29.61 in 10.0 mi South 4.6 mph - N/A   Overcast
3:53 AM 45.0 °F 41.2 °F 36.0 °F 71% 29.61 in 10.0 mi South 6.9 mph - N/A   Overcast
4:53 AM 45.0 °F 41.2 °F 37.0 °F 74% 29.61 in 10.0 mi South 6.9 mph - N/A   Overcast
5:53 AM 44.1 °F 40.1 °F 37.0 °F 76% 29.62 in 10.0 mi SSE 6.9 mph - N/A   Overcast
6:53 AM 44.1 °F 40.8 °F 37.9 °F 79% 29.62 in 10.0 mi SE 5.8 mph - N/A   Overcast
7:53 AM 42.1 °F 38.4 °F 39.0 °F 89% 29.62 in 10.0 mi SSE 5.8 mph - 0.00 in Rain Light Rain
8:53 AM 42.1 °F 38.4 °F 39.9 °F 92% 29.63 in 10.0 mi South 5.8 mph - 0.00 in   Overcast
9:53 AM 44.1 °F 40.1 °F 39.9 °F 85% 29.62 in 10.0 mi SSE 6.9 mph - N/A   Overcast
10:53 AM 46.9 °F - 39.9 °F 77% 29.61 in 10.0 mi SE 5.8 mph - N/A   Overcast
11:53 AM 48.9 °F - 39.0 °F 69% 29.60 in 10.0 mi SSE 10.4 mph - N/A   Overcast
12:53 PM 51.1 °F - 39.0 °F 63% 29.58 in 10.0 mi SSE 13.8 mph - N/A   Overcast
1:53 PM 53.1 °F - 36.0 °F 52% 29.55 in 10.0 mi SSE 16.1 mph - N/A   Clear
2:53 PM 54.0 °F - 34.0 °F 47% 29.54 in 10.0 mi South 17.3 mph 28.8 mph N/A   Partly Cloudy
3:53 PM 54.0 °F - 33.1 °F 45% 29.53 in 10.0 mi SSE 18.4 mph 26.5 mph N/A   Mostly Cloudy
4:53 PM 53.1 °F - 32.0 °F 45% 29.52 in 10.0 mi SSE 20.7 mph 26.5 mph N/A   Overcast
5:53 PM 52.0 °F - 30.9 °F 45% 29.50 in 10.0 mi SSE 18.4 mph 21.9 mph N/A   Overcast
6:53 PM 50.0 °F - 30.9 °F 48% 29.49 in 10.0 mi SSE 11.5 mph - N/A   Overcast
7:53 PM 46.0 °F 41.9 °F 34.0 °F 63% 29.48 in 10.0 mi SSE 8.1 mph - N/A   Scattered Clouds
8:53 PM 45.0 °F 39.3 °F 35.1 °F 68% 29.47 in 10.0 mi SSE 11.5 mph - N/A   Overcast
9:53 PM 46.0 °F 40.2 °F 34.0 °F 63% 29.44 in 10.0 mi SE 12.7 mph - N/A   Overcast
10:53 PM 46.0 °F 40.6 °F 34.0 °F 63% 29.41 in 10.0 mi South 11.5 mph - N/A   Overcast
11:53 PM 42.1 °F 37.7 °F 34.0 °F 73% 29.38 in 10.0 mi SSE 6.9 mph - N/A   Mostly Cloudy